Franklin, PA

5:29 PM EST on November 21, 2019 (GMT -0500)
Venango Regional

Weather History for KFKL - August, 2019

Change the Weather History Date:

Friday, August 23, 2019

  Actual Average Record
Temperature  
Mean Temperature 61 °F -  
Max Temperature 70 °F 78 °F 91 °F (1936)
Min Temperature 53 °F 54 °F 41 °F (1952)
Degree Days  
Heating Degree Days 4    
Growing Degree Days 11 (Base 50)    
Moisture  
Dew Point 53 °F    
Average Humidity 78    
Maximum Humidity 96    
Minimum Humidity 61    
Precipitation  
Precipitation 0.00 in - - ()
Sea Level Pressure  
Sea Level Pressure 30.13 in    
Wind  
Wind Speed 2 mph (North)    
Max Wind Speed 7 mph    
Max Gust Speed -    
Visibility 10 miles    
Events      
Averages and records for this station are not official NWS values.
T = Trace of Precipitation, MM = Missing Value Source: NWS Daily Summary

Daily Weather History Graph

Daily Weather History Graph

Search for Another Location

Airport or City:

Astronomy

Aug. 23, 2019 Rise Set
Actual Time 6:36 AM EDT 8:07 PM EDT
Civil Twilight 6:07 AM EDT 8:36 PM EDT
Nautical Twilight 5:32 AM EDT 9:11 PM EDT
Astronomical Twilight 4:54 AM EDT 9:48 PM EDT
Moon No Moon Rise 2:16 PM EDT (8/23)
Length of Visible Light 14h 28m
Length of Day
13h 30m
Waning Gibbous, 50% of the Moon is Illuminated
Aug 23
Waning Gibbous
Aug 30
New
Sep 5
First Quarter
Sep 14
Full
Sep 21
Last Quarter

Hourly Weather History & Observations

Time (EDT) Temp. Dew Point Humidity Pressure Visibility Wind Dir Wind Speed Gust Speed Precip Events Conditions
12:56 AM 60.1 °F 54.0 °F 80% 30.07 in 10.0 mi Calm Calm - N/A   Overcast
1:56 AM 57.9 °F 53.1 °F 84% 30.07 in 10.0 mi Calm Calm - N/A   Clear
2:56 AM 57.0 °F 52.0 °F 83% 30.06 in 10.0 mi Variable 3.5 mph - N/A   Clear
3:56 AM 55.9 °F 53.1 °F 90% 30.06 in 10.0 mi Calm Calm - N/A   Clear
4:56 AM 55.0 °F 53.1 °F 93% 30.07 in 10.0 mi Calm Calm - N/A   Clear
5:56 AM 53.1 °F 52.0 °F 96% 30.09 in 10.0 mi Calm Calm - N/A   Clear
6:56 AM 54.0 °F 52.0 °F 93% 30.10 in 10.0 mi Calm Calm - N/A   Clear
7:56 AM 55.9 °F 53.1 °F 90% 30.12 in 10.0 mi North 3.5 mph - N/A   Clear
8:56 AM 57.0 °F 54.0 °F 89% 30.13 in 10.0 mi NNE 4.6 mph - N/A   Clear
9:56 AM 60.1 °F 55.0 °F 83% 30.13 in 10.0 mi Variable 3.5 mph - N/A   Clear
10:56 AM 62.1 °F 55.0 °F 78% 30.14 in 10.0 mi Variable 3.5 mph - N/A   Clear
11:56 AM 64.0 °F 55.0 °F 73% 30.14 in 10.0 mi North 3.5 mph - N/A   Partly Cloudy
12:56 PM 66.0 °F 53.1 °F 63% 30.14 in 10.0 mi West 4.6 mph - N/A   Partly Cloudy
1:56 PM 69.1 °F 55.0 °F 61% 30.13 in 10.0 mi NE 5.8 mph - N/A   Mostly Cloudy
2:56 PM 68.0 °F 54.0 °F 61% 30.13 in 10.0 mi NNE 5.8 mph - N/A   Overcast
3:56 PM 68.0 °F 55.0 °F 63% 30.13 in 10.0 mi Variable 3.5 mph - N/A   Mostly Cloudy
4:56 PM 66.9 °F 55.0 °F 66% 30.12 in 10.0 mi Variable 5.8 mph - N/A   Mostly Cloudy
5:56 PM 66.0 °F 55.0 °F 68% 30.13 in 10.0 mi North 6.9 mph - N/A   Partly Cloudy
6:56 PM 64.9 °F 54.0 °F 68% 30.14 in 10.0 mi NNE 6.9 mph - N/A   Clear
7:56 PM 63.0 °F 53.1 °F 70% 30.15 in 10.0 mi Calm Calm - N/A   Clear
8:56 PM 60.1 °F 52.0 °F 75% 30.16 in 10.0 mi North 5.8 mph - N/A   Clear
9:56 PM 57.9 °F 52.0 °F 81% 30.19 in 10.0 mi North 3.5 mph - N/A   Clear
10:56 PM 55.9 °F 51.1 °F 84% 30.20 in 10.0 mi North 4.6 mph - N/A   Clear
11:56 PM 55.0 °F 51.1 °F 86% 30.22 in 10.0 mi Calm Calm - N/A   Clear